User: anonymous   Login
Location: Obersdorf
(47.4079°N, 10.2781°E)
Time: 06:59:41
(UTC+01:00)
Language:

Oscar 19 - Orbit

View from above orbital plane
View from above orbital plane
View from above satellite
View from above satellite

Ground track
Ground track

The orbit data is extracted from the following two-line orbital elements,

1 20442U 90005G   21338.85666240  .00000021  00000-0  24468-4 0  9991
2 20442  98.7663 296.0641 0012242  25.1809 334.9969 14.33009195665237
Epoch (UTC): 04 December 2021 20:33:35
Eccentricity: 0.0012242
inclination: 98.7663°
perigee height: 773 km
apogee height: 790 km
right ascension of ascending node: 296.0641°
argument of perigee: 25.1809°
revolutions per day: 14.33009195
mean anomaly at epoch: 334.9969°
orbit number at epoch: 66523

The dashed part of the orbit path shows where the satellite is in the earth's shadow,  

DLR